User: anonymous
Location: Unspecified
(0.0000°N, 0.0000°E)
Time: 08:25:09
(UTC+00:00)
Language:

RAX-2 - Orbit

View from above orbital plane
View from above orbital plane
View from above satellite
View from above satellite

Ground track
Ground track

The orbit data is extracted from the following two-line orbital elements,

1 37853U 11061D   14274.44684381  .00014515  00000-0  96447-3 0  9237
2 37853 101.7043 354.8254 0212655 109.1952 314.4572 14.90712780158484
Epoch (UTC): 01 October 2014 10:43:27
Eccentricity: 0.0212655
inclination: 101.7043°
perigee height: 447 km
apogee height: 744 km
right ascension of ascending node: 354.8254°
argument of perigee: 109.1952°
revolutions per day: 14.90712780
mean anomaly at epoch: 314.4572°
orbit number at epoch: 15848

The dashed part of the orbit path shows where the satellite is in the earth's shadow,  

DLR